Location: Boullarre
(49.1305°N, 3.0047°E)
Time: 17:01:25
(UTC+00:00)

Cosmos 1892 - Visible Passes

Search period start: 30 September 2023 00:00
Search period end: 10 October 2023 00:00
Orbit: 477 x 493 km, 82.5° (Epoch: 30 September)

Date Brightness Start Highest point End Pass type
(mag) Time Alt. Az. Time Alt. Az. Time Alt. Az.
06 Oct 5.6 20:23:20 10° N 20:23:26 11° N 20:23:26 11° N visible
07 Oct 5.4 19:58:42 10° N 19:58:59 12° N 19:58:59 12° N visible
08 Oct 5.2 19:34:08 10° N 19:34:31 12° NNE 19:34:31 12° NNE visible
09 Oct 5.0 19:09:42 10° NNE 19:10:04 12° NNE 19:10:04 12° NNE visible
